[[[{"header":{"parameterUnit":"kt","parameterCategory":2,"dx":1,"dy":1,"la1":30.253999710083008,"la2":30.299108505249023,"lo1":-89.0895004272461,"lo2":-89.04439544677734,"nx":28,"ny":28,"refTime":"2022-10-06T21:00:00:Z","depth":0,"parameterNumber":1,"parameterNumberName":"U-component_of_WINDS"},"data":[-0.0944,-0.0856,-0.0814,-0.0696,-0.0637,-0.0548,-0.0503,-0.0439,-0.0378,-0.0266,-0.0195,-0.0141,-0.0061,0.0035,0.0116,0.0139,0.017,0.0167,0.0194,0.0164,0.0163,0.0162,0.0144,0.0173,0.0173,0.0218,0.0219,0.0219,-0.0976,-0.0918,-0.0842,-0.0739,-0.0674,-0.0647,-0.0562,-0.0509,-0.043,-0.0352,-0.0278,-0.0176,-0.0088,-0.0005,0.0087,0.0129,0.0148,0.0151,0.0149,0.0161,0.013,0.011,0.0133,0.0133,0.0133,0.0133,0.0133,0.0133,-0.1023,-0.0972,-0.0885,-0.0801,-0.0737,-0.0668,-0.0611,-0.0547,-0.0471,-0.037,-0.0331,-0.0239,-0.0152,-0.0017,0.004,0.0113,0.0119,0.0136,0.0141,0.0144,0.014,0.0065,0.0131,0.0131,0.0131,0.0131,0.0131,0,-0.1044,-0.1012,-0.0934,-0.0845,-0.0781,-0.0707,-0.0631,-0.0594,-0.0506,-0.0447,-0.0356,-0.0296,-0.0178,-0.0087,0.0011,0.0068,0.0106,0.0115,0.0127,0.0109,0.0078,0.0094,0.0041,0.0114,0.0114,0.0114,0.0114,0.0114,-0.109,-0.1034,-0.0919,-0.0871,-0.0818,-0.074,-0.0685,-0.0611,-0.0555,-0.0449,-0.0407,-0.0314,-0.0236,-0.0097,-0.0018,0.0072,0.0092,0.0114,0.0106,0.0084,0.0091,0.0087,0.0092,0.0114,0.0114,0.0114,0.0114,0,-0.112,-0.1047,-0.0945,-0.0835,-0.0806,-0.0751,-0.0656,-0.0601,-0.0542,-0.0457,-0.0433,-0.0339,-0.025,-0.0174,-0.0055,-0.0018,0.0073,0.009,0.0041,0.0049,0.0075,0.0071,0.0153,0.0166,0.0137,0.0138,0.0138,0,-0.113,-0.1058,-0.0954,-0.0898,-0.0817,-0.0743,-0.0665,-0.0605,-0.0527,-0.0459,-0.0404,-0.0342,-0.0252,-0.0179,-0.0123,-0.0035,-0.0012,0.0022,0.0036,0.0017,0.0013,0.005,0.0048,0.0067,0.0067,0.0066,0.0066,0,-0.1185,-0.1043,-0.0953,-0.0908,-0.0781,-0.074,-0.0685,-0.0595,-0.054,-0.0456,-0.0419,-0.0326,-0.0275,-0.0204,-0.0133,-0.0142,-0.0023,-0.0019,0.0012,0.001,0.0036,0.0033,0.0084,0.0065,0.0065,0.0065,0.0065,0,-0.118,-0.1098,-0.0977,-0.087,-0.0836,-0.0775,-0.0679,-0.0609,-0.0518,-0.0479,-0.0411,-0.0364,-0.0279,-0.0282,-0.0164,-0.0196,-0.0149,-0.0108,-0.0104,-0.0091,-0.0096,-0.0078,-0.0037,-0.003,-0.0081,-0.0083,-0.0084,0,-0.1265,-0.1122,-0.1057,-0.0942,-0.0866,-0.081,-0.0741,-0.0661,-0.0602,-0.0528,-0.0463,-0.0378,-0.0363,-0.0325,-0.0278,-0.0206,-0.0165,-0.0209,-0.0103,-0.01,-0.0131,-0.0092,-0.0105,-0.0055,-0.0098,-0.0097,-0.0095,0,-0.132,-0.1165,-0.1149,-0.1095,-0.0976,-0.091,-0.083,-0.0729,-0.0684,-0.0598,-0.053,-0.0406,-0.0391,-0.0328,-0.0278,-0.0232,-0.0191,-0.022,-0.0217,-0.0219,-0.0098,-0.0112,-0.0103,-0.0168,-0.0166,-0.0164,-0.0107,0,-0.1333,-0.125,-0.1203,-0.1083,-0.102,-0.0942,-0.0859,-0.0803,-0.0763,-0.0702,-0.0598,-0.0507,-0.0402,-0.037,-0.0328,-0.0247,-0.0248,-0.0231,-0.0227,-0.0202,-0.0181,-0.0172,-0.0266,-0.0265,-0.0264,-0.0264,0,0,-0.1433,-0.1311,-0.1239,-0.1159,-0.1101,-0.1041,-0.0966,-0.0901,-0.0772,-0.0733,-0.0731,-0.0543,-0.0469,-0.0351,-0.0337,-0.0293,-0.0271,-0.0281,-0.0214,-0.0209,-0.0204,-0.0183,-0.0175,-0.0263,-0.0263,-0.0263,-0.0262,0,-0.142,-0.1347,-0.1273,-0.1204,-0.1099,-0.1037,-0.102,-0.0904,-0.086,-0.0757,-0.0707,-0.0634,-0.0483,-0.0412,-0.0356,-0.0294,-0.0259,-0.0268,-0.0264,-0.0212,-0.0207,-0.0203,-0.0182,-0.0175,-0.0261,-0.0261,-0.0261,0,-0.146,-0.1375,-0.133,-0.1193,-0.1123,-0.1043,-0.1019,-0.0935,-0.0875,-0.0809,-0.0706,-0.0644,-0.054,-0.0438,-0.0389,-0.0384,-0.0254,-0.0278,-0.0279,-0.0271,-0.0216,-0.0211,-0.0206,-0.0268,-0.0268,-0.0268,0,0,-0.146,-0.1381,-0.1264,-0.1184,-0.1143,-0.1049,-0.0997,-0.095,-0.0859,-0.0822,-0.074,-0.0652,-0.0564,-0.0508,-0.042,-0.032,-0.0292,-0.0282,-0.0282,-0.0282,-0.0275,-0.022,-0.0214,-0.027,-0.027,-0.027,0,0,-0.1459,-0.1321,-0.1296,-0.1192,-0.1108,-0.0986,-0.0939,-0.0905,-0.0817,-0.0816,-0.073,-0.0703,-0.0606,-0.0545,-0.0575,-0.0417,-0.0414,-0.0405,-0.046,-0.0458,-0.0457,-0.0474,-0.0535,0,0,0,0,0,-0.1401,-0.1339,-0.1317,-0.1287,-0.1111,-0.0999,-0.0975,-0.0904,-0.0905,-0.0871,-0.0797,-0.0762,-0.0544,-0.0569,-0.0539,-0.0506,-0.0289,-0.0285,-0.0282,-0.0329,-0.0328,-0.0327,0,0,0,0,0,0,-0.1389,-0.1352,-0.1319,-0.1196,-0.1155,-0.1,-0.0986,-0.0965,-0.0907,-0.0902,-0.0777,-0.0758,-0.0693,-0.0579,-0.0553,-0.0523,-0.0543,-0.0287,-0.0285,-0.0282,-0.0328,-0.0328,-0.0327,0,0,0,0,0,-0.1379,-0.1349,-0.1086,-0.1196,-0.1161,-0.1051,-0.0988,-0.097,-0.0924,-0.0808,-0.0787,-0.0875,-0.0694,-0.0668,-0.0563,-0.0536,-0.0561,-0.0551,-0.0286,-0.0283,-0.0281,-0.0328,0,0,0,0,0,0,-0.1371,-0.1331,-0.1077,-0.1064,-0.1214,-0.1059,-0.1032,-0.0975,-0.0831,-0.0811,-0.0902,-0.09,-0.0694,-0.0674,-0.0653,-0.0545,-0.0575,-0.0565,-0.0559,-0.0284,-0.0282,-0.028,0,0,0,0,0,0,-0.1347,-0.132,-0.107,-0.1097,-0.1086,-0.1066,-0.1042,-0.0941,-0.083,-0.0933,-0.0927,-0.0903,-0.0724,-0.0678,-0.0662,-0.0507,-0.0585,-0.0576,-0.057,-0.0566,-0.0282,-0.0281,0,0,0,0,0,0,-0.1334,-0.1312,-0.11,-0.1091,-0.1082,-0.0926,-0.0975,-0.0798,-0.0856,-0.094,-0.0859,-0.086,-0.0729,-0.0711,-0.0668,-0.0521,-0.0511,-0.0585,-0.0579,-0.0575,-0.0572,0,0,0,0,0,0,0,-0.1324,-0.1493,-0.1157,-0.1087,-0.1078,-0.0941,-0.0937,-0.0933,-0.0856,-0.0857,-0.0859,-0.086,-0.0637,-0.0627,-0.0617,-0.0531,0,0,-0.0586,-0.0582,0,0,0,0,0,0,0,0,-0.1501,-0.1495,-0.1156,-0.1154,-0.1151,-0.094,-0.0937,-0.0934,-0.0856,-0.0857,-0.0858,-0.0859,-0.0634,-0.0626,-0.0618,0,0,0,0,0,0,0,0,0,0,0,0,0,0,0,-0.1156,-0.1154,0,-0.094,-0.0937,-0.0935,-0.0857,-0.0857,-0.0858,-0.0859,-0.0632,-0.0625,-0.0619,0,0,0,0,0,0,0,0,0,0,0,0,0,0,0,0,0,0,0,0,0,0,0,0,0,0,0,0,0,0,0,0,0,0,0,0,0,0,0,0,0,0,0,0,0,0,0,0,0,0,0,0,0,0,0,0,0,0,0,0,0,0,0,0,0,0,0,0,0]}],[{"header":{"parameterUnit":"kt","parameterCategory":2,"dx":1,"dy":1,"la1":30.253999710083008,"la2":30.299108505249023,"lo1":-89.0895004272461,"lo2":-89.04439544677734,"nx":28,"ny":28,"refTime":"2022-10-06T21:00:00:Z","depth":0,"parameterNumber":2,"parameterNumberName":"V-component_of_WINDS"},"data":[5.0026,5.0039,5.0032,5.0043,5.0039,5.0043,5.0042,5.004,5.0036,5.0039,5.0038,5.0032,5.0023,5.0019,5.0016,5.0012,5.001,5.0018,5.0012,4.9986,4.9982,4.9978,4.9974,5.0019,5.0019,5.0038,5.0039,5.0039,5.0,4.9996,5.0002,5.0002,5.0005,4.9993,4.9992,4.9994,4.9998,4.9995,4.9995,4.9996,4.9996,4.9985,4.9982,4.9983,4.9976,4.9983,4.9981,4.9979,4.9952,4.9949,4.9988,4.9988,4.9988,4.9988,4.9988,4.9988,4.9951,4.996,4.9957,4.9963,4.9962,4.9962,4.9968,4.9961,4.9965,4.9965,4.9957,4.9961,4.9954,4.9949,4.9945,4.9945,4.9937,4.9941,4.9941,4.9942,4.9942,4.9907,4.9945,4.9945,4.9945,4.9945,4.9944,0,4.9912,4.9906,4.9913,4.9916,4.992,4.9923,4.9923,4.9927,4.9913,4.9917,4.9921,4.9922,4.9922,4.9923,4.9919,4.9915,4.99,4.99,4.9902,4.9904,4.9905,4.99,4.9853,4.9899,4.9898,4.9898,4.9898,4.9897,4.9857,4.9871,4.9868,4.9873,4.9873,4.9881,4.9884,4.9872,4.9876,4.9873,4.9881,4.9883,4.9885,4.989,4.988,4.988,4.9873,4.989,4.9872,4.9873,4.9868,4.9866,4.9865,4.9893,4.9893,4.9894,4.9894,0,4.9825,4.9819,4.9839,4.9835,4.9834,4.9848,4.9843,4.9852,4.9845,4.9855,4.9857,4.9846,4.9849,4.9838,4.984,4.9833,4.9846,4.9841,4.9846,4.9844,4.9855,4.9852,4.9903,4.9907,4.9864,4.9865,4.9865,0,4.9775,4.9794,4.9782,4.9794,4.9813,4.9803,4.9821,4.9818,4.9816,4.9824,4.9809,4.9816,4.9801,4.9805,4.9796,4.9805,4.9807,4.9801,4.9797,4.9801,4.9801,4.98,4.9796,4.9795,4.9795,4.9795,4.9795,0,4.9723,4.9743,4.9764,4.9766,4.9766,4.9775,4.9774,4.9773,4.9777,4.978,4.9782,4.9786,4.9788,4.9789,4.9777,4.9765,4.979,4.9771,4.9783,4.9783,4.9788,4.9788,4.9837,4.9794,4.9794,4.9794,4.9794,0,4.968,4.9689,4.9722,4.9719,4.9725,4.9739,4.9744,4.9754,4.9754,4.975,4.9752,4.9741,4.9753,4.9734,4.9748,4.9735,4.9736,4.9733,4.9733,4.9732,4.971,4.9734,4.9786,4.9789,4.9731,4.973,4.973,0,4.9619,4.9654,4.9647,4.9679,4.9693,4.9675,4.969,4.9692,4.9689,4.9697,4.9692,4.9703,4.9687,4.9689,4.9698,4.9692,4.9708,4.969,4.9694,4.9694,4.9691,4.9739,4.9748,4.9776,4.9723,4.9724,4.9724,0,4.9572,4.9577,4.9584,4.9586,4.9592,4.9605,4.9624,4.9634,4.9639,4.9647,4.9658,4.9676,4.9662,4.9667,4.966,4.9669,4.9696,4.9654,4.9654,4.9658,4.9721,4.9728,4.9733,4.9688,4.9689,4.9689,4.9719,0,4.9498,4.9519,4.9539,4.955,4.956,4.9583,4.9577,4.9586,4.9578,4.9575,4.9596,4.9598,4.9607,4.9613,4.9607,4.9635,4.9627,4.9615,4.9594,4.9627,4.9636,4.9641,4.9581,4.958,4.958,4.9579,0,0,4.9439,4.9469,4.9464,4.9484,4.9492,4.9476,4.95,4.9505,4.9518,4.9521,4.951,4.9535,4.9539,4.9563,4.9573,4.9579,4.9582,4.9573,4.9613,4.9617,4.962,4.963,4.9635,4.9578,4.9578,4.9578,4.9578,0,4.9411,4.9421,4.9449,4.9454,4.9464,4.9461,4.9468,4.9474,4.9474,4.9498,4.9482,4.9494,4.9519,4.9521,4.9525,4.9569,4.9556,4.9574,4.9598,4.9608,4.9612,4.9616,4.9627,4.9632,4.9577,4.9577,4.9577,0,4.9359,4.9366,4.9381,4.9404,4.941,4.9428,4.9405,4.9427,4.9438,4.942,4.9444,4.9444,4.945,4.9478,4.949,4.948,4.9532,4.9518,4.9521,4.9521,4.9531,4.9536,4.9541,4.9476,4.9476,4.9475,0,0,4.9335,4.9357,4.9362,4.9398,4.9403,4.9401,4.9411,4.9406,4.9414,4.9417,4.9419,4.9425,4.9437,4.9446,4.9459,4.9492,4.9489,4.9506,4.951,4.9514,4.9517,4.9527,4.9533,4.9474,4.9474,4.9474,0,0,4.9324,4.9332,4.9325,4.9366,4.9375,4.9381,4.9401,4.9391,4.9404,4.94,4.9391,4.9392,4.9419,4.9421,4.9405,4.945,4.943,4.9434,4.9448,4.9454,4.9459,4.9457,4.9381,0,0,0,0,0,4.9294,4.9331,4.9324,4.9331,4.9361,4.9385,4.9389,4.9383,4.9368,4.9383,4.9382,4.937,4.9409,4.9395,4.94,4.9417,4.9458,4.9461,4.9464,4.949,4.9496,4.9501,0,0,0,0,0,0,4.9296,4.9305,4.9323,4.9332,4.9338,4.9384,4.9356,4.9356,4.9366,4.9363,4.937,4.937,4.9364,4.9392,4.9396,4.9413,4.9379,4.946,4.9462,4.9464,4.9492,4.9497,4.9501,0,0,0,0,0,4.9298,4.9305,4.9357,4.9331,4.9337,4.9338,4.9355,4.9354,4.9362,4.9363,4.9362,4.9357,4.9365,4.9368,4.9394,4.9411,4.9376,4.9378,4.9461,4.9463,4.9465,4.9494,0,0,0,0,0,0,4.93,4.9303,4.9358,4.9359,4.9318,4.9335,4.9338,4.9353,4.9361,4.9361,4.9349,4.9347,4.9366,4.9368,4.9371,4.9411,4.9374,4.9375,4.9376,4.9462,4.9464,4.9465,0,0,0,0,0,0,4.93,4.9305,4.9359,4.9343,4.9342,4.9333,4.9335,4.9358,4.9361,4.9346,4.9345,4.9348,4.9361,4.9369,4.937,4.9406,4.9372,4.9373,4.9374,4.9375,4.9464,4.9465,0,0,0,0,0,0,4.9302,4.9306,4.9342,4.9342,4.9342,4.9357,4.9352,4.9383,4.935,4.9346,4.9347,4.9345,4.9361,4.9363,4.937,4.9405,4.9406,4.9372,4.9373,4.9374,4.9374,0,0,0,0,0,0,0,4.9303,4.9277,4.935,4.9342,4.9341,4.9372,4.9373,4.9373,4.935,4.9348,4.9347,4.9346,4.9362,4.9364,4.9366,4.9404,0,0,4.9371,4.9372,0,0,0,0,0,0,0,0,4.9275,4.9276,4.935,4.935,4.9351,4.9372,4.9373,4.9373,4.9349,4.9348,4.9347,4.9346,4.9362,4.9364,4.9365,0,0,0,0,0,0,0,0,0,0,0,0,0,0,0,4.935,4.935,0,4.9372,4.9373,4.9373,4.9349,4.9348,4.9347,4.9347,4.9363,4.9364,4.9365,0,0,0,0,0,0,0,0,0,0,0,0,0,0,0,0,0,0,0,0,0,0,0,0,0,0,0,0,0,0,0,0,0,0,0,0,0,0,0,0,0,0,0,0,0,0,0,0,0,0,0,0,0,0,0,0,0,0,0,0,0,0,0,0,0,0,0,0,0]}]]]